Hourly Weather Roundup
Issued by NWS Central Illinois

Home | Current Version | Previous Version | Graphics & Text | Print | Product List | Glossary On
Versions: 1 2 3 4 5 6 7 8 9 10 11 12 13 14 15 16 17 18 19 20 21 22 23 24 25 26 27 28 29 30 31 32 33 34 35 36 37 38 39 40 41 42 43 44 45 46 47 48 49 50
250
NZUS43 KILX 261610
HWRILX

AREA WEATHER ROUNDUP
NATIONAL WEATHER SERVICE, LINCOLN IL
1000 AM CST SUN FEB 26 2017


CITY           SKY/WX    TMP DP  RH WIND       PRES   REMARKS
BLOOMINGTON    PTSUNNY   37  17  44 S23G29    30.06S WCI  26
CHAMPAIGN      MOSUNNY   40  16  37 S24       30.10F WCI  29
DECATUR        MOSUNNY   38  15  39 SW18      30.11S WCI  28
EFFINGHAM      SUNNY     38  20  48 SE14      30.18R WCI  30
FLORA          SUNNY     39  19  44 S17       30.19S WCI  30
GALESBURG      MOSUNNY   38  22  51 SW21G28   29.99S WCI  28
JACKSONVILLE   MOSUNNY   38  16  40 S18G25    30.09R WCI  29
LACON          PTSUNNY   37  19  46 SW17G23   30.01S WCI  28
LAWRENCEVILLE  SUNNY     38  18  44 S15       30.20F WCI  29
LITCHFIELD     CLOUDY    37  19  49 S21       30.13R WCI  26
$$


CITY           SKY/WX    TMP DP  RH WIND       PRES   REMARKS
LINCOLN        PTSUNNY   39  20  47 S14G22    30.09S WCI  30
MACOMB         MOSUNNY   38  18  44 SW20G26   30.03F WCI  28
MATTOON        SUNNY     38  17  42 S17G23    30.12F WCI  28
MT CARMEL AP   SUNNY     37  18  45 S12       30.19F WCI  30
OLNEY-NOBLE AP SUNNY     36  21  55 SE13      30.19S WCI  27
PARIS          MOSUNNY   37  18  46 S24       30.15F WCI  26
PEORIA         CLOUDY    37  17  44 S15       30.04S WCI  28
PONTIAC        MOSUNNY   38  19  45 S21G30    30.05S WCI  28
RANTOUL        MOSUNNY   39  19  44 S20G25    30.10F WCI  29
SPRINGFIELD    MOSUNNY   40  17  39 S17       30.10S WCI  31
TAYLORVILLE    CLOUDY    38  18  44 S22       30.12S WCI  28
$$

...REGIONAL REPORTS...


CITY           SKY/WX    TMP DP  RH WIND       PRES   REMARKS
CHICAGO O`HARE PTSUNNY   35  16  45 S22       29.97F WCI  23
KANKAKEE       MOSUNNY   38  19  46 S22G29    30.06F WCI  27
MOLINE         MOSUNNY   41  21  44 SW18G25   29.96S WCI  32
MOUNT STERLING PTSUNNY   40  18  41 S15G23    30.05S WCI  31
MOUNT VERNON   MOSUNNY   40  17  39 S12       30.18S WCI  33
PITTSFIELD     CLOUDY    39  19  43 S14G20    30.08S WCI  31
QUINCY         MOSUNNY   40  18  41 S15       30.04S WCI  32
ROCKFORD       PTSUNNY   36  20  52 SW18G28   29.95R WCI  26
$$


CITY           SKY/WX    TMP DP  RH WIND       PRES   REMARKS
BURLINGTON     SUNNY     40  20  44 SW17      29.99S WCI  31
CEDAR RAPIDS   SUNNY     36  24  62 SW20      29.91R WCI  25
DES MOINES     MOSUNNY   40  24  53 W21       29.92R WCI  30
KIRKSVILLE     SUNNY     41  19  41 W9G24     30.02S
OTTUMWA        MOSUNNY   41  20  43 SW18      29.96R WCI  32
ST LOUIS       CLOUDY    40  13  33 S13       30.13R WCI  32
$$


CITY           SKY/WX    TMP DP  RH WIND       PRES   REMARKS
TERRE HAUTE    SUNNY     38  15  39 S14       30.17F WCI  30
EVANSVILLE     SUNNY     38  16  40 SE10      30.23S WCI  31
INDIANAPOLIS   MOSUNNY   34  17  50 S13       30.17F WCI  25
LAFAYETTE      SUNNY     34  19  54 S10G20    30.13F WCI  26
MADISON        PTSUNNY   33  20  58 SW14G20   29.85S WCI  23
MILWAUKEE      CLOUDY    35  19  52 SW16G30   29.89F WCI  25
$$






USA.gov is the U.S. government's official web portal to all federal, state and local government web resources and services.